Date,TemperatureHighF,TemperatureAvgF,TemperatureLowF,DewpointHighF,DewpointAvgF,DewpointLowF,HumidityHigh,HumidityAvg,HumidityLow,PressureMaxIn,PressureMinIn,WindSpeedMaxMPH,WindSpeedAvgMPH,GustSpeedMaxMPH,PrecipitationSumIn
2013-2-1,31,26,19,17,9,3,68,50,36,30.05,29.54,11,4,0,0.00
2013-2-2,29,22,12,12,5,0,61,47,36,30.21,30.00,7,2,0,0.00
2013-2-3,26,23,16,19,17,12,85,78,62,30.04,29.70,5,1,0,0.00
2013-2-4,29,22,16,17,8,2,84,56,37,29.90,29.70,12,4,0,0.00
2013-2-5,30,22,14,17,9,2,78,56,43,30.00,29.90,5,1,0,0.00
2013-2-6,37,27,20,24,16,4,86,64,43,30.27,29.90,6,2,0,0.00
2013-2-7,28,21,13,3,-1,-6,53,37,27,30.51,30.27,7,2,0,0.00
2013-2-8,23,20,16,16,12,-2,85,73,34,30.47,29.68,14,4,0,0.00
2013-2-9,21,17,12,15,9,-2,86,70,52,30.19,29.61,16,9,0,0.00
2013-2-10,38,23,10,4,-1,-7,54,36,16,30.37,30.20,8,3,0,0.08
2013-2-11,31,25,15,29,19,4,92,79,53,30.33,29.58,3,1,0,0.00
2013-2-12,43,36,30,32,28,26,92,74,56,29.83,29.57,8,3,0,0.34
2013-2-13,41,34,26,26,22,19,77,63,48,29.83,29.69,6,1,0,0.00
2013-2-14,44,33,23,23,20,16,76,60,41,29.96,29.69,7,1,0,0.00
2013-2-15,53,37,24,32,26,18,88,66,44,29.97,29.85,9,2,0,0.00
2013-2-16,40,33,27,30,24,14,90,71,52,29.95,29.72,7,3,0,0.04
2013-2-17,26,20,14,16,5,-2,79,54,41,29.72,29.36,16,9,0,0.00
2013-2-18,29,20,12,1,-2,-7,52,38,20,30.13,29.67,16,6,0,0.00
2013-2-19,45,33,18,37,20,1,92,59,35,30.16,29.54,6,1,0,0.25
2013-2-20,37,31,24,35,20,12,92,65,45,29.74,29.50,10,4,0,0.01
2013-2-21,34,25,21,15,12,8,66,56,45,30.20,29.74,12,6,0,0.00
2013-2-22,40,31,20,22,18,14,79,61,40,30.37,30.20,7,2,0,0.00
2013-2-23,38,33,27,30,26,20,91,77,67,30.32,29.93,4,1,0,0.00
2013-2-24,34,32,30,31,30,28,93,92,90,29.92,29.71,6,2,0,0.17
2013-2-25,41,33,28,35,30,26,92,88,76,30.23,29.90,3,0,0,0.40
2013-2-26,43,35,29,33,28,26,93,77,62,30.34,30.18,5,1,0,0.15
2013-2-27,40,35,32,38,32,28,93,90,78,30.18,29.59,10,4,0,1.53
2013-2-28,44,37,32,37,33,30,93,86,72,29.62,29.51,6,2,0,0.03